logo
App data

Job the Leprechaun

Help Job the Leprechaun to rescue his friend Eri in this retro style Platformer Game.
Store | Hub | SteamDB | Site
Developer: Herrero Games Publisher: Herrero Games
Genre: Casual, Indie
Languages: English
Tags: Indie (27), Casual (27), Platformer (15)
Category: Single-player, Steam Achievements, Full controller support, Steam Trading Cards
Release date: Jul 31, 2015
Price: $2.99
Old userscore: 80% Owners: 50,000 .. 100,000
Followers: 658
Playtime total: 02:19 (average) 02:59 (median)

Steam Spy is still in beta, so expect major bugs.

Owners data:

Access restricted.

This feature is only available to users with special access rights. Sorry.

If you want to proceed, you need to register or log in first and then back Steam Spy on Patreon. Look for Indie or Pro pledge.

Don't forget to use the same email as on Steam Spy!

If you've recently backed Steam Spy on Patreon, please note, that it might take around 15 minutes for your access rights to sync. In most cases you'll need to re-login on Steam Spy too.

Audience in 2 weeks:

Access restricted.

This feature is only available to users with special access rights. Sorry.

If you want to proceed, you need to register or log in first and then back Steam Spy on Patreon. Look for Indie or Pro pledge.

Don't forget to use the same email as on Steam Spy!

If you've recently backed Steam Spy on Patreon, please note, that it might take around 15 minutes for your access rights to sync. In most cases you'll need to re-login on Steam Spy too.

Peak daily concurrent players:

CCU data courtesy of SteamDB. Used with permission.

Hourly concurrent players:

Daily Twitch stats:

Hourly Twitch stats:

Followers over time

Access restricted.

This feature is only available to users with special access rights. Sorry.

If you want to proceed, you need to register or log in first and then back Steam Spy on Patreon. Look for Indie or Pro pledge.

Don't forget to use the same email as on Steam Spy!

If you've recently backed Steam Spy on Patreon, please note, that it might take around 15 minutes for your access rights to sync. In most cases you'll need to re-login on Steam Spy too.

Views for top 50 videos on YouTube for this game:

Games similar to this one:

# Game Release date
Price
Score rank
(Userscore / Metascore)
Owners
Players
Playtime (Median)
1 Sophie's Curse Mar 16, 2016 $4.99N/A (N/A)50,000 .. 100,0000%00:00 (00:00)
2 Magma Tsunami Jun 1, 2016 $0.99N/A (N/A)200,000 .. 500,0000%00:00 (00:00)
3 Autumn Sep 23, 2014 $0.99N/A (N/A)50,000 .. 100,0000%00:00 (00:00)
4 Hyposphere May 5, 2016 $2.99N/A (N/A)200,000 .. 500,0000%00:00 (00:00)
5 One Last Chance Apr 7, 2016 $3.99N/A (N/A)0 .. 20,0000%00:00 (00:00)
6 Forgotten, Not Lost - A Kinetic Novel Apr 1, 2016 $1.99N/A (N/A)20,000 .. 50,0000%00:00 (00:00)
7 [the Sequence] Mar 30, 2016 $4.99N/A (N/A)20,000 .. 50,0000%00:00 (00:00)
8 Burst Mar 14, 2016 N/AN/A (N/A)20,000 .. 50,0000%00:00 (00:00)
9 Mind Games Mar 4, 2016 $2.99N/A (N/A)20,000 .. 50,0000%00:00 (00:00)
10 Frog Climbers Oct 6, 2016 $6.99N/A (N/A)20,000 .. 50,0000%00:00 (00:00)
11 Broken Dreams Feb 19, 2016 $1.99N/A (N/A)500,000 .. 1,000,0000%00:00 (00:00)
12 Zipple World Jan 19, 2016 $4.99N/A (N/A)0 .. 20,0000%00:00 (00:00)
13 SquareCells Dec 7, 2015 $2.99N/A (N/A)50,000 .. 100,0000%00:00 (00:00)
14 The Last NightMary - A Lenda do Cabeça de Cuia Nov 2, 2015 $3.99N/A (N/A)50,000 .. 100,0000%00:00 (00:00)
15 Lift It Jan 20, 2017 $4.99N/A (N/A)50,000 .. 100,0000%00:00 (00:00)
16 Without Within 2 Nov 9, 2015 $4.99N/A (N/A)0 .. 20,0000%00:00 (00:00)
17 The Deletion Jul 30, 2015 $1.99N/A (N/A)20,000 .. 50,0000%00:00 (00:00)
18 In Between Aug 21, 2015 $11.99N/A (N/A/68%)50,000 .. 100,0000%00:00 (00:00)
19 Archimedes Oct 6, 2016 $1.99N/A (N/A)20,000 .. 50,0000%00:00 (00:00)
20 Dungeon Painter Studio Feb 26, 2017 $14.99N/A (N/A)50,000 .. 100,00025%00:25 (00:08)
21 Ninja Stealth 2 Jan 30, 2017 $0.99N/A (N/A)50,000 .. 100,0000%00:00 (00:00)
22 Winexy Jan 13, 2017 $4.99N/A (N/A)50,000 .. 100,0000%00:00 (00:00)
23 iREC Jan 16, 2017 $2.99N/A (N/A)100,000 .. 200,0000%00:00 (00:00)
24 Neon Prism Nov 18, 2016 $10.99N/A (N/A)100,000 .. 200,0000%00:00 (00:00)
25 The Survey Oct 27, 2016 $4.99N/A (N/A)20,000 .. 50,0000%00:00 (00:00)
26 GO AWAY, THERE'S KUMIS OVER THERE! Oct 28, 2016 $0.99N/A (N/A)50,000 .. 100,0000%00:00 (00:00)
27 Kombine Oct 14, 2016 $0.99N/A (N/A)20,000 .. 50,0000%00:00 (00:00)
28 Alpha Runner Sep 2, 2015 $0.49N/A (N/A)100,000 .. 200,0000%00:00 (00:00)
29 Turbo Pug 3D Sep 20, 2016 $0.99N/A (N/A)200,000 .. 500,0000%00:00 (00:00)
30 Carrie's Order Up! Sep 13, 2016 $2.99N/A (N/A)0 .. 20,0000%00:00 (00:00)
31 Football Blitz Jan 4, 2017 N/AN/A (N/A)0 .. 20,0000%00:00 (00:00)
32 Won't You Be My Laser? Sep 2, 2016 $0.99N/A (N/A)20,000 .. 50,0000%00:00 (00:00)
33 Optika Aug 26, 2016 $4.99N/A (N/A)0 .. 20,0000%00:00 (00:00)
34 Clock Simulator Jul 20, 2016 N/AN/A (N/A)0 .. 20,0000%00:00 (00:00)
35 ConflictCraft Dec 8, 2016 $1.99N/A (N/A)100,000 .. 200,0000%00:00 (00:00)
36 Totally Unbalanced Jul 29, 2016 FreeN/A (N/A)50,000 .. 100,0000%00:00 (00:00)
37 Bloop Reloaded Feb 6, 2015 FreeN/A (N/A)100,000 .. 200,0000%00:00 (00:00)
38 Steam and Metal Feb 9, 2015 $4.99N/A (N/A)0 .. 20,0000%00:00 (00:00)
39 1931: Scheherazade at the Library of Pergamum Mar 26, 2015 $4.99N/A (N/A)20,000 .. 50,00033.33%03:00 (01:30)
40 The Jackbox Party Pack Nov 26, 2014 $24.99N/A (N/A)200,000 .. 500,0002.5%00:01 (00:00)
41 Vampires: Guide Them to Safety! Oct 22, 2014 $4.99N/A (N/A)0 .. 20,0000%00:00 (00:00)
42 Sinister City Oct 20, 2014 $0.99N/A (N/A)100,000 .. 200,0000%00:00 (00:00)
43 Laserlife Sep 22, 2015 $9.99N/A (N/A)20,000 .. 50,0000%00:00 (00:00)
44 Quantum Rush Champions Dec 4, 2014 $9.99N/A (N/A)20,000 .. 50,0000%00:00 (00:00)
45 A Good Snowman Is Hard To Build Feb 25, 2015 $9.99N/A (N/A)50,000 .. 100,0000%00:00 (00:00)
46 Marble Duel: Sphere-Matching Tactical Fantasy Nov 12, 2015 $14.99N/A (N/A)50,000 .. 100,0000%00:00 (00:00)
47 GamersGoMakers Aug 8, 2014 $8.99N/A (N/A)20,000 .. 50,0000%00:00 (00:00)
48 Cyto Jul 10, 2014 $3.99N/A (N/A)20,000 .. 50,0000%00:00 (00:00)
49 On Rusty Trails Jun 13, 2016 $12.99N/A (N/A/77%)0 .. 20,0000%00:00 (00:00)
50 Tribloos 2 Jan 12, 2013 $4.99N/A (N/A)100,000 .. 200,0000%00:00 (00:00)
51 Girls Like Robots Feb 14, 2014 $6.99N/A (N/A)100,000 .. 200,0000%00:00 (00:00)
52 Dead Man's Draw Feb 6, 2014 $6.99N/A (N/A)50,000 .. 100,0000%00:00 (00:00)
53 Particulars Nov 19, 2014 FreeN/A (N/A/74%)0 .. 20,0000%00:00 (00:00)
54 Oozi: Earth Adventure Dec 5, 2013 $9.99N/A (N/A/66%)20,000 .. 50,0000%00:00 (00:00)
55 Earthtongue Apr 27, 2015 $4.99N/A (N/A)50,000 .. 100,0000%00:00 (00:00)
56 Wanda - A Beautiful Apocalypse Jun 3, 2016 $1.99N/A (N/A)100,000 .. 200,0000%00:00 (00:00)
57 Star Chronicles: Delta Quadrant Jul 7, 2015 $0.99N/A (N/A)200,000 .. 500,0000%00:00 (00:00)
58 Koala Kids Jun 22, 2015 $1.99N/A (N/A)100,000 .. 200,0000%00:00 (00:00)
59 Fate Tectonics Sep 9, 2015 $4.99N/A (N/A)20,000 .. 50,0000%00:00 (00:00)
60 Space Drifters 2D Mar 28, 2016 $0.99N/A (N/A)20,000 .. 50,0000%00:00 (00:00)
61 Way of Gold and Steel Aug 17, 2015 $8.99N/A (N/A)20,000 .. 50,0000%00:00 (00:00)
62 Power of Love Jul 21, 2015 $0.49N/A (N/A)20,000 .. 50,0000%00:00 (00:00)
63 Egg Returns Home May 5, 2015 N/AN/A (N/A)50,000 .. 100,0000%00:00 (00:00)
64 Luxor Evolved Mar 1, 2012 $9.99N/A (N/A)50,000 .. 100,0000%00:00 (00:00)
65 Alter World May 29, 2015 $1.99N/A (N/A)200,000 .. 500,0000%00:00 (00:00)
66 Drizzlepath Mar 12, 2015 $1.99N/A (N/A)20,000 .. 50,0000%00:00 (00:00)
67 Pester Aug 21, 2015 $0.99N/A (N/A)100,000 .. 200,0000%00:00 (00:00)
68 Racecraft Mar 4, 2016 FreeN/A (N/A)20,000 .. 50,0000%00:00 (00:00)
69 Streets of Chaos Jan 23, 2015 N/AN/A (N/A)100,000 .. 200,0000%00:00 (00:00)
70 Pixel Puzzles 2: Birds Feb 20, 2015 $4.99N/A (N/A)100,000 .. 200,0000%00:00 (00:00)
71 Bob Was Hungry Aug 19, 2015 $9.99N/A (N/A)50,000 .. 100,0000%00:00 (00:00)
72 12 Labours of Hercules Mar 23, 2015 $2.99N/A (N/A)100,000 .. 200,0000%00:00 (00:00)

Tags over time:

Access restricted.

This feature is only available to users with special access rights. Sorry.

If you want to proceed, you need to register or log in first and then back Steam Spy on Patreon. Look for Indie or Pro pledge.

Don't forget to use the same email as on Steam Spy!

If you've recently backed Steam Spy on Patreon, please note, that it might take around 15 minutes for your access rights to sync. In most cases you'll need to re-login on Steam Spy too.

Owners of this game also own:

Access restricted.

This feature is only available to users with special access rights. Sorry.

If you want to proceed, you need to register or log in first and then back Steam Spy on Patreon. Look for Indie or Pro pledge.

Don't forget to use the same email as on Steam Spy!

If you've recently backed Steam Spy on Patreon, please note, that it might take around 15 minutes for your access rights to sync. In most cases you'll need to re-login on Steam Spy too.

Playtime distribution:

Access restricted.

This feature is only available to users with special access rights. Sorry.

If you want to proceed, you need to register or log in first and then back Steam Spy on Patreon. Look for Indie or Pro pledge.

Don't forget to use the same email as on Steam Spy!

If you've recently backed Steam Spy on Patreon, please note, that it might take around 15 minutes for your access rights to sync. In most cases you'll need to re-login on Steam Spy too.

Playtime (2 weeks):

Access restricted.

This feature is only available to users with special access rights. Sorry.

If you want to proceed, you need to register or log in first and then back Steam Spy on Patreon. Look for Indie or Pro pledge.

Don't forget to use the same email as on Steam Spy!

If you've recently backed Steam Spy on Patreon, please note, that it might take around 15 minutes for your access rights to sync. In most cases you'll need to re-login on Steam Spy too.

User reviews:

Login required.

Please register or log in to see this information.